Regional Weather Roundup
Issued by NWS Charleston, SC

Current Version | Previous Version | Graphics & Text | Print | Product List | Glossary On
Versions: 1 2 3 4 5 6 7 8 9 10 11 12 13 14 15 16 17 18 19 20 21 22 23 24 25 26 27 28 29 30 31 32 33 34 35 36 37 38 39 40 41 42 43 44 45 46 47 48 49 50
000
ASUS42 KCHS 201225
RWRCHS

REGIONAL WEATHER ROUNDUP
NATIONAL WEATHER SERVICE CHARLESTON SC
700 AM EST SAT DEC 20 2014

NOTE: "FAIR" INDICATES FEW OR NO CLOUDS BELOW 12,000 FEET WITH NO
SIGNIFICANT WEATHER AND/OR OBSTRUCTIONS TO VISIBILITY.

NOT ALL STATIONS ARE QUALITY CONTROLLED BY THE NATIONAL
WEATHER SERVICE. USE DATA WITH CAUTION...ESPECIALLY
DEWPOINT OBSERVATIONS.

SCZ027-030-031-034>040-042>050-201300-
...SOUTHEAST SOUTH CAROLINA...

CITY           SKY/WX    TMP DP  RH WIND       PRES   REMARKS
N CHARLESTON   CLOUDY    50  47  89 CALM      30.17R
6HR MIN TEMP:  49; 6HR MAX TEMP:  50; 6HR PCP: TRACE;

WATERFRONT PRK   N/A     52 N/A N/A N9          N/A
MOUNT PLEASANT CLOUDY    52  50  93 CALM      30.16S
PINOPOLIS        N/A     52  46  82 E7        30.09R
MONCKS CORNER  LGT RAIN  50  46  87 CALM      30.16S
SUMMERVILLE    NOT AVBL
BEAUFORT MCAS  LGT RAIN  50  46  86 NE8       30.15S
6HR MIN TEMP:  50; 6HR MAX TEMP:  53; 6HR PCP:  0.04;

BEAUFORT ARPT  CLOUDY    50  48  93 NE7       30.15S
HILTON HEAD IS PTCLDY    52  48  87 N7        30.17
WALTERBORO     CLOUDY    48 N/A N/A NE3       30.16F
ALLENDALE      CLOUDY    48  46  93 CALM      30.16R

...SOUTHERN MIDLANDS AND PEE DEE...

CITY           SKY/WX    TMP DP  RH WIND       PRES   REMARKS
GEORGETOWN     NOT AVBL
KINGSTREE      NOT AVBL
ORANGEBURG     LGT RAIN  46  43  89 NE6       30.16R
6HR MIN TEMP:  46; 6HR MAX TEMP:  49; 6HR PCP:  0.04;

BARNWELL         N/A     48  46  93 N3        30.19R
AIKEN          LGT RAIN  45  45 100 CALM      30.21R
MANNING        NOT AVBL
COLUMBIA       CLOUDY    47  42  83 NE3       30.19R
6HR MIN TEMP:  46; 6HR MAX TEMP:  50; 6HR PCP:  0.07;

SUMTER         LGT RAIN  43  41  93 NE5       30.18R
6HR MIN TEMP:  43; 6HR MAX TEMP:  46; 6HR PCP:  0.06;

FLORENCE       LGT RAIN  43  39  86 E6        30.20R
6HR MIN TEMP:  42; 6HR MAX TEMP:  45; 6HR PCP:  0.06;

MYRTLE BEACH   LGT RAIN  46  43  87 NE9       30.21R
N MYRTLE BEACH LGT RAIN  46  43  89 NE9       30.18F
6HR MIN TEMP:  45; 6HR MAX TEMP:  47; 6HR PCP:  0.01;


$$

GAZ063-065-086>088-099>101-113>116-118-119-134>141-150-201300-
...SOUTHEAST GEORGIA...

CITY           SKY/WX    TMP DP  RH WIND       PRES   REMARKS
SAVANNAH ARPT  CLOUDY    51  47  86 NE6       30.14S
6HR MIN TEMP:  51; 6HR MAX TEMP:  53; 6HR PCP:  0.01;

HUNTER AAF     CLOUDY    52  51  97 NE7       30.12S
6HR MIN TEMP:  52; 6HR MAX TEMP:  53; 6HR PCP:  0.02;

FORT STEWART   LGT RAIN  52  50  93 CALM      30.14R
6HR MIN TEMP:  50; 6HR MAX TEMP:  51; 6HR PCP:  0.02;

STATESBORO     LGT RAIN  49  49 100 CALM      30.16R
SYLVANIA       CLOUDY    49  48  97 CALM      30.17R
CLAXTON        CLOUDY    48  48 100 CALM      30.15R FOG

...CSRA...CENTRAL AND FAR SOUTHEAST GEORGIA...

CITY           SKY/WX    TMP DP  RH WIND       PRES   REMARKS
THOMSON        CLOUDY    48  48 100 CALM      30.22R
AUGUSTA-BUSH   LGT RAIN  48  46  93 CALM      30.17R
6HR MIN TEMP:  47; 6HR MAX TEMP:  49; 6HR PCP:  0.05;

AUGUSTA-DANIEL LGT RAIN  50  47  89 E6        30.17R
SWAINSBORO     LGT RAIN  50  50 100 CALM      30.18R
VIDALIA        CLOUDY    50  50 100 CALM      30.15R
EASTMAN        DRIZZLE   48  48 100 CALM      30.19R
HAZLEHURST     LGT RAIN  51  51 100 CALM      30.14R
ALMA           CLOUDY    50  48  93 CALM      30.14R
6HR MIN TEMP:  50; 6HR MAX TEMP:  51; 6HR PCP:  0.03;

WAYCROSS       CLOUDY    54  53  96 CALM      30.14R
JESUP          CLOUDY    54  52  94 CALM      30.15R FOG
BAXLEY         RAIN      52  50  93 CALM      30.14R
BRUNSWICK      CLOUDY    54  50  87 N5        30.14R
SAINT SIMONS   MOCLDY    54  50  86 NE5       30.13R
6HR MIN TEMP:  53; 6HR MAX TEMP:  56; 6HR PCP:  0.01;


$$

SCZ027-028-034-036>038-045-046-048>050-GAZ119-141-201300-
...LAKE AND SUPPLEMENTAL COASTAL OBSERVATIONS...

STATION/POSITION TIME  TEMP    WIND        PRES    WAVE   SWELL
                       AIR SEA DIR/SP/G            HT/PER HT/PER/DIR
                 (UTC) (F)     (DEG/KT/KT) (MB)    (FT/S) (FT/S/D)
UPR LAKE MARION  NOT AVBL
WINYAH BAY       1100   52      50/  7     1020.0F
LAKE MURRAY      1200   46      50/  1/  4 1021.3S
ACE BASIN NERRS  1100   49      10/  1     1021.0R
FORT PULASKI     1200   53 57   20/  5/  8 1021.1R
SAPELO ISLAND    1100   54      10/  6     1020.0S

$$

ANZ835-935-AMZ111-154-330-350-352-354-370-450-454-472-201300-
...C-MAN AND BUOY OBSERVATIONS...

STATION/POSITION TIME  TEMP    WIND        PRES    WAVE   SWELL
                       AIR SEA DIR/SP/G            HT/PER HT/PER/DIR
                 (UTC) (F)     (DEG/KT/KT) (MB)    (FT/S) (FT/S/D)
BUOY 41004       1200   64 69   50/ 17/ 21 1019.6R   4/ 5   2/11
BUOY 41008       1200   58 57   30/ 10/ 12 1019.9R   2/11   2/110/11
FOLLY BEACH CMAN 1200   54      30/ 12/ 13 1021.7R
CAPERS NEARSHORE 1100   55      40/ 14/ 16   N/A
FRIPP NEARSHORE  NOT AVBL


STATION/POSITION TIME  TEMP    WIND        PRES    WAVE   SWELL
                       AIR SEA DIR/SP/G            HT/PER HT/PER/DIR
                 (UTC) (F)     (DEG/KT/KT) (MB)    (FT/S) (FT/S/D)
5E ST. MARYS GA  1200      61                N/A     2/ 3
FRYING PAN BUOY  1200   57 69   60/ 14/ 17 1022.6R   2/ 4   2/120/11
BUOY 41025       1200   46                 1024.2R   3/ 7
CAPE LOOKOUT NC  1200   46      10/ 10/ 11 1024.1R
BUOY 41002       1135   65 72   50/ 12/ 16 1021.1F   3/10   2/100/10
BUOY 41010       1200   72 76  170/  6/  8 1019.5R   2/10   2/ 80/10
ST AUGUSTINE FL  1200   64      20/  8/  8 1019.9R


$$


USA.gov is the U.S. government's official web portal to all federal, state and local government web resources and services.